Hourly Weather Bijeljina

Today, 27 October, Tuesday

Time Temperature Precipitation Wind Pressure Humidity
00:00 +13°C° 0 mm 2 mps 750 mmHg 77%
01:00 +13°C° 0 mm 1 mps 751 mmHg 79%
02:00 +13°C° 0 mm 1 mps 750 mmHg 80%
03:00 +12°C° 0 mm 1 mps 750 mmHg 81%
04:00 +12°C° 0 mm 1 mps 750 mmHg 82%
05:00 +12°C° 0 mm 2 mps 750 mmHg 81%
06:00 +12°C° 0 mm 2 mps 750 mmHg 80%
07:00 +12°C° 0 mm 2 mps 751 mmHg 80%
08:00 +15°C° 0 mm 2 mps 750 mmHg 71%
09:00 +17°C° 0 mm 2 mps 750 mmHg 62%
10:00 +19°C° 0 mm 2 mps 750 mmHg 53%
11:00 +21°C° 0 mm 2 mps 750 mmHg 49%
12:00 +23°C° 0 mm 2 mps 750 mmHg 45%
13:00 +24°C° 0 mm 2 mps 750 mmHg 41%
14:00 +23°C° 0 mm 2 mps 750 mmHg 45%
15:00 +21°C° 0 mm 2 mps 749 mmHg 49%
16:00 +20°C° 0 mm 2 mps 749 mmHg 53%
17:00 +18°C° 0 mm 2 mps 750 mmHg 57%
18:00 +18°C° 0 mm 1 mps 750 mmHg 61%
19:00 +16°C° 0 mm 1 mps 751 mmHg 65%
20:00 +15°C° 0 mm 1 mps 751 mmHg 67%
21:00 +15°C° 0 mm 1 mps 751 mmHg 69%
22:00 +14°C° 0 mm 1 mps 752 mmHg 72%
23:00 +14°C° 0 mm 1 mps 752 mmHg 74%

Tomorrow, 28 October, Wednesday

Time Temperature Precipitation Wind Pressure Humidity
00:00 +14°C° 0 mm 1 mps 752 mmHg 76%
01:00 +13°C° 0 mm 1 mps 752 mmHg 78%
02:00 +13°C° 0 mm 1 mps 752 mmHg 82%
03:00 +12°C° 0 mm 1 mps 752 mmHg 85%
04:00 +12°C° 0 mm 1 mps 752 mmHg 88%
05:00 +12°C° 0 mm 1 mps 752 mmHg 90%
06:00 +12°C° 0 mm 1 mps 753 mmHg 92%
07:00 +12°C° 0 mm 2 mps 753 mmHg 93%
08:00 +13°C° 0 mm 2 mps 753 mmHg 88%
09:00 +15°C° 0 mm 2 mps 753 mmHg 82%
10:00 +16°C° 0 mm 2 mps 754 mmHg 76%
11:00 +17°C° 0 mm 2 mps 754 mmHg 73%
12:00 +17°C° 0 mm 2 mps 753 mmHg 71%
13:00 +18°C° 0 mm 2 mps 753 mmHg 68%
14:00 +17°C° 0 mm 2 mps 753 mmHg 70%
15:00 +18°C° 0 mm 1 mps 753 mmHg 73%
16:00 +16°C° 0 mm 1 mps 753 mmHg 76%
17:00 +15°C° 0 mm 1 mps 754 mmHg 80%
18:00 +14°C° 0 mm 1 mps 754 mmHg 84%
19:00 +13°C° 0 mm 1 mps 754 mmHg 88%
20:00 +13°C° 0 mm 1 mps 755 mmHg 89%
21:00 +13°C° 0 mm 1 mps 755 mmHg 90%
22:00 +12°C° 0 mm 1 mps 755 mmHg 91%
23:00 +12°C° 0 mm 1 mps 755 mmHg 91%

Day after tomorrow, 29 October, Thursday

Time Temperature Precipitation Wind Pressure Humidity
00:00 +12°C° 0 mm 1 mps 755 mmHg 92%
01:00 +12°C° 0 mm 1 mps 755 mmHg 92%
02:00 +12°C° 0 mm 1 mps 755 mmHg 92%
03:00 +11°C° 0 mm 1 mps 755 mmHg 92%
04:00 +11°C° 0 mm 1 mps 755 mmHg 92%
05:00 +11°C° 0 mm 1 mps 756 mmHg 92%
06:00 +11°C° 0 mm 1 mps 756 mmHg 92%
07:00 +11°C° 0 mm 1 mps 756 mmHg 92%
08:00 +13°C° 0 mm 1 mps 756 mmHg 85%
09:00 +15°C° 0 mm 1 mps 756 mmHg 78%
10:00 +18°C° 0 mm 1 mps 756 mmHg 71%
11:00 +18°C° 0 mm 1 mps 756 mmHg 68%
12:00 +19°C° 0 mm 1 mps 756 mmHg 64%
13:00 +20°C° 0 mm 1 mps 756 mmHg 61%
14:00 +19°C° 0 mm 1 mps 756 mmHg 63%
15:00 +19°C° 0 mm 1 mps 756 mmHg 65%
16:00 +18°C° 0 mm 1 mps 756 mmHg 68%
17:00 +18°C° 0 mm 1 mps 756 mmHg 69%
18:00 +16°C° 0 mm 2 mps 757 mmHg 70%
19:00 +16°C° 0 mm 2 mps 757 mmHg 72%
20:00 +15°C° 0 mm 2 mps 758 mmHg 71%
21:00 +15°C° 0 mm 2 mps 758 mmHg 69%
22:00 +15°C° 0 mm 2 mps 759 mmHg 68%
23:00 +14°C° 0 mm 2 mps 759 mmHg 68%

30 October, Friday

Time Temperature Precipitation Wind Pressure Humidity
00:00 +14°C° 0 mm 1 mps 759 mmHg 69%
01:00 +14°C° 0 mm 1 mps 759 mmHg 70%
02:00 +13°C° 0 mm 1 mps 759 mmHg 70%
03:00 +13°C° 0 mm 2 mps 760 mmHg 71%
04:00 +13°C° 0 mm 2 mps 760 mmHg 71%
05:00 +13°C° 0 mm 2 mps 761 mmHg 73%
06:00 +13°C° 0 mm 2 mps 761 mmHg 74%
07:00 +12°C° 0 mm 1 mps 761 mmHg 75%
08:00 +13°C° 0 mm 2 mps 761 mmHg 70%
09:00 +14°C° 0 mm 2 mps 761 mmHg 65%
10:00 +14°C° 0 mm 2 mps 761 mmHg 60%
11:00 +15°C° 0 mm 2 mps 761 mmHg 58%
12:00 +16°C° 0 mm 2 mps 761 mmHg 55%
13:00 +16°C° 0 mm 2 mps 760 mmHg 53%
14:00 +16°C° 0 mm 2 mps 760 mmHg 56%
15:00 +15°C° 0 mm 1 mps 760 mmHg 59%
16:00 +15°C° 0 mm 1 mps 760 mmHg 62%
17:00 +14°C° 0 mm 1 mps 760 mmHg 65%
18:00 +13°C° 0 mm 1 mps 760 mmHg 67%
19:00 +12°C° 0 mm 1 mps 760 mmHg 70%
20:00 +12°C° 0 mm 1 mps 760 mmHg 70%
21:00 +12°C° 0 mm 1 mps 760 mmHg 71%
22:00 +12°C° 0 mm 1 mps 760 mmHg 71%
23:00 +12°C° 0 mm 1 mps 760 mmHg 70%

31 October, Saturday

Time Temperature Precipitation Wind Pressure Humidity
00:00 +12°C° 0 mm 1 mps 760 mmHg 69%
01:00 +12°C° 0 mm 1 mps 760 mmHg 69%
02:00 +12°C° 0 mm 1 mps 760 mmHg 69%
03:00 +12°C° 0 mm 2 mps 760 mmHg 69%
04:00 +12°C° 0 mm 2 mps 760 mmHg 69%
05:00 +12°C° 0 mm 2 mps 760 mmHg 69%
06:00 +12°C° 0 mm 2 mps 759 mmHg 68%
07:00 +12°C° 0 mm 2 mps 759 mmHg 68%
08:00 +12°C° 0 mm 3 mps 759 mmHg 68%
09:00 +12°C° 0 mm 3 mps 759 mmHg 67%
10:00 +13°C° 0 mm 3 mps 759 mmHg 67%
11:00 +13°C° 0 mm 3 mps 759 mmHg 65%
12:00 +14°C° 0 mm 3 mps 759 mmHg 64%
13:00 +14°C° 0 mm 3 mps 758 mmHg 63%
14:00 +14°C° 0 mm 3 mps 758 mmHg 64%
15:00 +14°C° 0 mm 3 mps 758 mmHg 66%
16:00 +14°C° 0 mm 3 mps 758 mmHg 68%
17:00 +14°C° 0 mm 3 mps 758 mmHg 70%
18:00 +14°C° 0 mm 2 mps 758 mmHg 72%
19:00 +14°C° 0 mm 2 mps 759 mmHg 75%
20:00 +14°C° 0.1 mm 2 mps 759 mmHg 75%
21:00 +13°C° 0.1 mm 2 mps 759 mmHg 75%
22:00 +13°C° 0.1 mm 1 mps 759 mmHg 75%
23:00 +11°C° 0 mm 1 mps 760 mmHg 77%

1 November, Sunday

Time Temperature Precipitation Wind Pressure Humidity
00:00 +10°C° 0 mm 1 mps 760 mmHg 78%
01:00 +9°C° 0 mm 1 mps 760 mmHg 80%
02:00 +9°C° 0 mm 1 mps 761 mmHg 82%
03:00 +8°C° 0 mm 1 mps 761 mmHg 83%
04:00 +7°C° 0 mm 1 mps 761 mmHg 85%
05:00 +7°C° 0 mm 1 mps 761 mmHg 85%
06:00 +7°C° 0 mm 1 mps 762 mmHg 85%
07:00 +7°C° 0 mm 1 mps 762 mmHg 85%
08:00 +9°C° 0 mm 1 mps 762 mmHg 75%
09:00 +10°C° 0 mm 1 mps 762 mmHg 66%
10:00 +12°C° 0 mm 1 mps 762 mmHg 56%
11:00 +13°C° 0 mm 1 mps 762 mmHg 51%
12:00 +14°C° 0 mm 1 mps 762 mmHg 46%
13:00 +15°C° 0 mm 1 mps 762 mmHg 41%
14:00 +14°C° 0 mm 1 mps 761 mmHg 44%
15:00 +13°C° 0 mm 1 mps 761 mmHg 47%
16:00 +12°C° 0 mm 1 mps 761 mmHg 50%
17:00 +11°C° 0 mm 1 mps 761 mmHg 53%
18:00 +10°C° 0 mm 1 mps 762 mmHg 56%
19:00 +8°C° 0 mm 0 mps 762 mmHg 59%
20:00 +7°C° 0 mm 0 mps 762 mmHg 61%
21:00 +7°C° 0 mm 0 mps 762 mmHg 62%
22:00 +8°C° 0 mm 1 mps 762 mmHg 64%
23:00 +7°C° 0 mm 1 mps 762 mmHg 65%
Show more